Regional Weather Roundup
Issued by NWS Jackson, KY

Home | Current Version | Previous Version | Graphics & Text | Print | Product List | Glossary On
Versions: 1 2 3 4 5 6 7 8 9 10 11 12 13 14 15 16 17 18 19 20 21 22 23 24 25 26 27 28 29 30 31 32 33 34 35 36 37 38 39 40 41 42 43 44 45 46 47 48 49 50
174
ASUS43 KJKL 070510
RWRJKL

EAST KENTUCKY HOURLY WEATHER ROUNDUP
NATIONAL WEATHER SERVICE JACKSON KY
1200 AM EST WED DEC 07 2016

NOTE: "FAIR" INDICATES FEW OR NO CLOUDS BELOW 12,000 FEET WITH
NO SIGNIFICANT WEATHER AND/OR OBSTRUCTIONS TO VISIBILITY.

* THESE REPORTS ARE NOT UNDER NWS QUALITY CONTROL AND MAY NOT
  REPORT WEATHER SUCH AS PRECIPITATION AND FOG.

KYZ079-080-083-085-087-088-110-112-115-119-120-070600
...EASTERN KENTUCKY...

CITY           SKY/WX    TMP DP  RH WIND       PRES   REMARKS
JACKSON        CLOUDY    42  36  79 VRB5      29.99R
LONDON         CLOUDY    42  37  82 NW5       30.02R
SOMERSET*      CLOUDY    41  37  87 NW6       30.05R
MONTICELLO*    CLOUDY    42  38  85 NW10      30.06R
WILLIAMSBURG*  CLOUDY    41  41 100 CALM      30.02R
MIDDLESBORO*   CLOUDY    45  38  75 W5        30.01R
HARLAN APT*    CLOUDY    43  34  70 W3        29.99R
PIKE CO APT*   CLOUDY    42  39  89 NW7       29.97R
BIG SANDY APT* CLOUDY    43  37  79 W7        29.98R
MOREHEAD APT*  CLOUDY    41  36  81 NW6       30.02R
ASHLAND*       CLOUDY    45  37  76 NW3       29.97R
$$

KYZ035-036-041-042-044-050-067-078-099-070600
...CENTRAL KENTUCKY...

CITY           SKY/WX    TMP DP  RH WIND       PRES   REMARKS
MT STERLING*   CLOUDY    39  36  87 NW6       30.03R WCI  35
FLEMING/MASON* PTCLDY    37  32  85 NW9       30.03R WCI  30
DANVILLE*      CLOUDY    37  34  87 NW6       30.05S WCI  33
LEXINGTON      CLOUDY    40  33  76 NW3       30.04R
FRANKFORT      CLOUDY    39  31  72 NW6       30.04R WCI  35
LOUISVILLE     CLOUDY    38  31  76 NW6       30.06R WCI  33
LEBANON*       CLOUDY    39  36  87 NW3       30.07R
GLASGOW*       CLOUDY    38  37  93 NW6       30.08R WCI  34
BOWLING GREEN  CLOUDY    40  34  79 NW5       30.10R
$$

KYZ091>093-OHZ055-061-077-WVZ005-015-034-035-042-070600
...SOUTHERN OHIO/WEST VIRGINIA...

CITY           SKY/WX    TMP DP  RH WIND       PRES   REMARKS
COVINGTON      PTCLDY    34  30  85 W10       30.03R WCI  26
COLUMBUS       CLOUDY    38  36  92 W12       29.95R WCI  30
DAYTON         MOCLDY    32  28  85 W10       29.98R WCI  24
WILMINGTON     MOCLDY    35  31  85 W10       29.98R WCI  27
HUNTINGTON     CLOUDY    43  35  73 NW7       29.97R
CHARLESTON     CLOUDY    45  39  79 W8        29.94S
PINEVILLE*     CLOUDY    44  39  83 MISG      29.98R
BECKLEY        CLOUDY    42  38  85 NW12      29.89R
BLUEFIELD      CLOUDY    40  39  97 W7G18     29.91R
LOGAN CO APT*  CLOUDY    43  39  87 CALM      29.94S
$$

VAZ002-007-008-TNZ017-027-036-066-071-070600
...SOUTHWEST VIRGINIA/EAST TENNESSEE...

CITY           SKY/WX    TMP DP  RH WIND       PRES   REMARKS
WISE*          CLOUDY    41  41 100 NW8       29.96R
ABINGDON*      PTCLDY    46  44  93 NW5       29.94R
BRISTOL        CLOUDY    44  44 100 CALM      29.95S FOG
MORRISTOWN*    CLOUDY    46  43  87 N6        29.97S
SEVIERVILLE*   MOCLDY    46  43  87 CALM      29.98R
KNOXVILLE      MOCLDY    47  42  83 N7        29.98R
OAK RIDGE      CLEAR     42  39  89 E3        30.01R
CROSSVILLE     CLOUDY    40  36  86 NW7       30.01R
NASHVILLE      CLOUDY    41  35  79 N10       30.09R
$$

...KEY TO REMARKS...
VSB - VISIBILITY IN MILES
WCI - WIND CHILL INDEX
HX  - HEAT INDEX

$$




USA.gov is the U.S. government's official web portal to all federal, state and local government web resources and services.